Showing default

CYGFM08, 41888

Orbit data source: Space-Track

CYGFM08, 41888 is an American payload satellite in LEO that was launched on Thu, 15 Dec 2016 UTC via a PEGASUS XL launch vehicle from the Pegasus Launch, Eastern Range Air Space (ERAS). Payload-class satellites include a variety of spacecraft equipped with specific instruments for various scientific and technological missions. These include communications satellites like Starlink; space stations such as the ISS; scientific satellites like the Hubble; Earth observation satellites from companies like Planet Labs, Umbra, and HawkEye 360; GPS; miniature CubeSats for education and research; and military/defense satellites.

Loading next visibility...
Identifier
41888, 2016-078E
Orbit
LEO
Last TLE update
16 hours ago
Origin
Manufacturer
SST-US
Mission
Extended mission Civil Science
Bus & Motor
CYGNSS, Unknown motor
Mass
29 kg wet, 29 kg dry
Launch date (UTC)
2016-12-15 (9 years ago)
Launch vehicle
PEGASUS XL
Launch site
Pegasus Launch, Eastern Range Air Space (ERAS)
Object type
Payload
Rocket body
Debris
Shape & HBR
Half Hex Cyl + 2 Pan, 1.7 m
Radar Cross Section
0.450 m², Medium (>0.1 m² and < 1m²)

Expand to show TLE details & history

TLE from 16 hours ago
0 CYGFM08
1 41888U 16078E   25183.21735158  .00009973  00000-0  22436-3 0  9990
2 41888  34.9479  17.1635 0009830 105.8125 254.3679 15.42438861474623
Epoch: 2025-07-02T05:12Z
TLE epoch observation values (Epoch: 2025-07-02T05:12:59.176Z)
Latitude
-0.00003°
Longitude
18.41527°
Altitude
439.618 km
Speed
7.649 km/s
True Right ascension
01h 08m 39s
True Declination
0° 00' 00"
Sunlit
Object was in daylight at epoch
Visualization orbit readout
Latitude
17.06724°
Longitude
168.14213°
Altitude
431.803 km
Speed
7.659 km/s
Apparent Right ascension
14h 16m 13s
Apparent Declination
-32° 00' 25"
Sunlit
Object is in daylight
Visualization observer readout
Local Sidereal Time
09:07:46
Azimuth
122.563° SE
Elevation
-11.245°
Doppler factor
1
Orbital elements
Apogee altitude
448.904 km
Perigee altitude
435.495 km
Semi-major axis
6,820.337 km
Eccentricity
0.00098
Inclination
34.9479°
RAAN
17.1635°
Arg. of periapsis
105.8125°
True anomaly
Unknown
Mean anomaly
254.3679°
Eccentric anomaly
Unknown
Mean motion
3.85331 °/min
Orbital period
93.43 mins
BSTAR
0.00022436
Loading maneuver chart data...
Loading SW <> Apogee altitude chart data...
Loading historical data...
Loading historical data...
Loading historical data...
Loading historical data...
Loading historical data...
Loading historical data...
Loading historical data...

CYGFM08 Visibility forecast

Observer location: undefined°, undefined°

Span
Click to sort rows by Start time (UTC) header in descending order
Start Az.
Max El. time (UTC)
Max El. Az.
Max El.
End time (UTC)
End Az.
4 mins2025-07-03 17:13:35.510Z215.153° SW2025-07-03 17:15:35.510Z167.976° S23.598°2025-07-03 17:17:35.510Z119.796° SE
5 mins2025-07-03 18:51:35.510Z240.057° WSW2025-07-03 18:53:35.510Z188.907° SSW29.466°2025-07-03 18:56:35.510Z117.531° SE
|